Volver al catálogo

STARLINK-36818

ActivoComunicacionesSSO
NORAD 67879·PAYLOAD·🇺🇸 United States

Lanzado Feb 21, 2026 desde Vandenberg Space Force Base

Loading…

Próximos Pases (próximas 24 horas)

TLE

ActualizadoSource: CelesTrak SupGP

Época: Sep 14, 2026, 21:33 UTC

1 67879C 26035A   26257.89840278 -.00071582  00000+0 -22223-2 0  2575
2 67879  97.2847 189.7484 0001722  91.2718 116.8311 15.33472206    12

Sigue STARLINK-36818 en tiempo real con AllMySat

Download on the App Store